Weather History for KEYW - March, 2013

Change the Weather History Date:

Sunday, March 3, 2013

  Actual Average Record
Temperature  
Mean Temperature 62 °F 72 °F  
Max Temperature 66 °F 77 °F 87 °F (1875)
Min Temperature 58 °F 67 °F 47 °F (1986)
Degree Days  
Heating Degree Days 3 0  
Month to date heating degree days 5 0  
Since 1 July heating degree days 17 66  
Cooling Degree Days 0 8  
Month to date cooling degree days 3 23  
Year to date cooling degree days 537 371  
Growing Degree Days 12 (Base 50)    
Moisture  
Dew Point 52 °F    
Average Humidity 71    
Maximum Humidity 86    
Minimum Humidity 56    
Precipitation  
Precipitation 0.15 in 0.08 in 1.87 in (1991)
Month to date precipitation 0.17 0.22  
Year to date precipitation 1.71 3.75  
Snow  
Snow 0.00 in - - ()
Month to date snowfall 0.0  
Since 1 July snowfall 0.0  
Snow Depth 0.00 in    
Sea Level Pressure  
Sea Level Pressure 30.06 in    
Wind  
Wind Speed 10 mph (NNW)    
Max Wind Speed 22 mph    
Max Gust Speed 33 mph    
Visibility 10 miles    
Events Rain    
T = Trace of Precipitation, MM = Missing Value Source: NWS Daily Summary

Daily Weather History Graph

Daily Weather History Graph

Search for Another Location

Airport or City:

Trip Planner

Search our weather history database for the weather conditions in past years. The results will help you decide how hot, cold, wet, or windy it might be!

Date:

Astronomy

Mar. 03, 2013 Rise Set
Actual Time 6:47 AM EST 6:30 PM EST
Civil Twilight 6:24 AM EST 6:53 PM EST
Nautical Twilight 5:58 AM EST 7:19 PM EST
Astronomical Twilight 5:31 AM EST 7:46 PM EST
Moon No Moon Rise 10:42 AM EST (3/3)
Length of Visible Light 12h 28m
Length of Day
11h 43m
Waning Gibbous, 64% of the Moon is Illuminated
Mar 3
Waning Gibbous
Mar 4
Last Quarter
Mar 11
New
Mar 19
First Quarter
Mar 27
Full

Hourly Weather History & Observations

Time (EST) Temp. Dew Point Humidity Pressure Visibility Wind Dir Wind Speed Gust Speed Precip Events Conditions
12:53 AM 59.0 °F 51.1 °F 75% 30.03 in 10.0 mi Calm Calm - N/A   Scattered Clouds
1:53 AM 60.1 °F 54.0 °F 80% 30.01 in 10.0 mi Calm Calm - 0.00 in Rain Light Rain
2:53 AM 57.9 °F 53.1 °F 84% 30.00 in 10.0 mi WSW 5.8 mph - 0.08 in Rain Light Rain
3:53 AM 61.0 °F 52.0 °F 72% 29.98 in 10.0 mi West 8.1 mph - 0.00 in Rain Light Rain
4:53 AM 61.0 °F 54.0 °F 78% 29.98 in 10.0 mi NNW 13.8 mph 33.4 mph 0.00 in Rain Light Rain
5:08 AM 60.8 °F 53.6 °F 77% 29.98 in 10.0 mi NNW 13.8 mph 23.0 mph 0.00 in   Mostly Cloudy
5:53 AM 60.1 °F 55.0 °F 83% 30.00 in 10.0 mi North 12.7 mph 18.4 mph 0.01 in Rain Light Rain
6:01 AM 59.0 °F 55.4 °F 88% 30.00 in 10.0 mi NNE 11.5 mph - 0.01 in Rain Light Rain
6:53 AM 57.9 °F 55.0 °F 90% 30.00 in 10.0 mi NNE 9.2 mph - 0.01 in   Overcast
7:33 AM 59.0 °F 53.6 °F 82% 30.03 in 10.0 mi NNE 9.2 mph - N/A   Overcast
7:53 AM 59.0 °F 54.0 °F 83% 30.03 in 10.0 mi NNE 4.6 mph - N/A   Mostly Cloudy
8:12 AM 60.8 °F 55.4 °F 82% 30.03 in 10.0 mi NNE 3.5 mph - N/A   Mostly Cloudy
8:19 AM 60.8 °F 53.6 °F 77% 30.04 in 10.0 mi NNE 4.6 mph - N/A   Mostly Cloudy
8:53 AM 60.1 °F 54.0 °F 80% 30.05 in 10.0 mi NNE 4.6 mph - N/A   Overcast
9:13 AM 60.8 °F 53.6 °F 77% 30.05 in 10.0 mi ENE 4.6 mph - N/A   Overcast
9:41 AM 60.8 °F 53.6 °F 77% 30.06 in 10.0 mi NNE 5.8 mph - 0.00 in Rain Light Rain
9:53 AM 60.1 °F 52.0 °F 75% 30.06 in 8.0 mi NW 4.6 mph - 0.00 in Rain Light Rain
10:53 AM 64.9 °F 51.1 °F 61% 30.05 in 10.0 mi NW 9.2 mph - 0.00 in   Clear
11:53 AM 61.0 °F 53.1 °F 75% 30.07 in 3.0 mi NW 16.1 mph 26.5 mph 0.04 in Rain Rain
12:53 PM 64.0 °F 54.0 °F 70% 30.06 in 10.0 mi North 16.1 mph 27.6 mph 0.01 in   Scattered Clouds
1:53 PM 64.0 °F 52.0 °F 65% 30.05 in 10.0 mi North 13.8 mph 20.7 mph N/A   Mostly Cloudy
2:53 PM 64.0 °F 52.0 °F 65% 30.06 in 10.0 mi NNW 15.0 mph 23.0 mph N/A   Mostly Cloudy
3:00 PM 62.6 °F 51.8 °F 68% 30.05 in 10.0 mi North 11.5 mph 23.0 mph N/A   Scattered Clouds
3:53 PM 62.1 °F 51.1 °F 67% 30.06 in 10.0 mi NNW 11.5 mph - N/A   Mostly Cloudy
4:53 PM 63.0 °F 51.1 °F 65% 30.08 in 10.0 mi NNW 12.7 mph 21.9 mph N/A   Scattered Clouds
5:53 PM 62.1 °F 51.1 °F 67% 30.10 in 10.0 mi NNW 11.5 mph - N/A   Mostly Cloudy
6:53 PM 61.0 °F 51.1 °F 70% 30.12 in 10.0 mi NW 10.4 mph - N/A   Partly Cloudy
7:53 PM 64.0 °F 48.0 °F 56% 30.13 in 10.0 mi NW 15.0 mph - N/A   Mostly Cloudy
8:53 PM 63.0 °F 46.9 °F 56% 30.15 in 10.0 mi NNW 12.7 mph 24.2 mph N/A   Mostly Cloudy
9:53 PM 63.0 °F 46.0 °F 54% 30.17 in 10.0 mi NNW 13.8 mph 25.3 mph N/A   Mostly Cloudy
10:53 PM 63.0 °F 48.0 °F 58% 30.18 in 10.0 mi NW 13.8 mph 19.6 mph N/A   Mostly Cloudy
11:53 PM 63.0 °F 46.9 °F 56% 30.17 in 10.0 mi NW 11.5 mph 20.7 mph N/A   Scattered Clouds